Location: Saratoga Springs
(43.0831°N, 73.7850°W)
Time: 13:42:05
(UTC-04:00)

S-56A Canister/Altair - All Passes

Search period start: 19 April 2024 00:00
Search period end: 29 April 2024 00:00
Orbit: 639 x 2488 km, 38.9° (Epoch: 19 April)

Date Brightness Start Highest point End Pass type
(mag) Time Alt. Az. Time Alt. Az. Time Alt. Az.
19 Apr - 00:02:00 10° W 00:10:47 34° SSW 00:22:19 10° SSE visible
19 Apr - 02:11:47 10° WSW 02:15:15 11° SW 02:18:54 10° SSW visible
19 Apr - 17:19:49 10° SSW 17:24:28 32° SSE 17:30:41 10° E daylight
19 Apr - 19:21:41 10° WSW 19:27:46 63° S 19:37:02 10° E daylight
19 Apr - 21:24:39 10° W 21:32:09 60° SSW 21:43:31 10° ESE visible
19 Apr - 23:28:29 10° W 23:36:54 36° SSW 23:48:18 10° SSE visible
20 Apr - 01:36:30 10° WSW 01:41:25 13° SW 01:46:50 10° SSW visible
20 Apr - 16:47:04 10° SSW 16:51:14 26° SSE 16:56:33 10° E daylight
20 Apr - 18:48:37 10° WSW 18:54:18 60° S 19:02:47 10° E daylight
20 Apr - 20:51:27 10° W 20:58:28 61° S 21:09:08 10° ESE visible
20 Apr - 22:55:04 10° W 23:03:04 38° SSW 23:14:13 10° SE visible
21 Apr - 01:01:56 10° WSW 01:07:36 15° SW 01:14:03 10° SSW visible
21 Apr - 16:14:22 10° SSW 16:18:01 21° SE 16:22:26 10° E daylight
21 Apr - 18:15:35 10° WSW 18:20:53 55° SSE 18:28:35 10° E daylight
21 Apr - 20:18:18 10° W 20:24:49 62° S 20:34:48 10° ESE visible
21 Apr - 22:21:42 10° W 22:29:17 40° SSW 22:40:05 10° SE visible
22 Apr - 00:27:45 10° WSW 00:33:47 17° SW 00:40:55 10° S visible
22 Apr - 15:41:48 10° S 15:44:50 17° SE 15:48:17 10° ESE daylight
22 Apr - 17:42:33 10° WSW 17:47:32 50° SSE 17:54:29 10° E daylight
22 Apr - 19:45:10 10° W 19:51:15 62° S 20:00:29 10° ESE daylight
22 Apr - 21:48:25 10° W 21:55:33 41° SSW 22:05:55 10° SE visible
22 Apr - 23:53:48 10° WSW 00:00:00 18° SW 00:07:33 10° S visible
23 Apr - 15:09:27 10° S 15:11:39 13° SE 15:14:00 10° ESE daylight
23 Apr - 17:09:33 10° SW 17:14:12 45° SSE 17:20:29 10° E daylight
23 Apr - 19:12:03 10° W 19:17:45 62° S 19:26:16 10° ESE daylight
23 Apr - 21:15:09 10° W 21:21:53 43° SSW 21:31:44 10° SE visible
23 Apr - 23:20:02 10° WSW 23:26:15 20° SW 23:34:00 10° S visible
24 Apr - 14:38:14 10° SE 14:38:27 10° SE 14:38:40 10° SE daylight
24 Apr - 16:36:33 10° SW 16:40:56 39° SSE 16:46:33 10° E daylight
24 Apr - 18:38:57 10° W 18:44:18 61° S 18:52:06 10° ESE daylight
24 Apr - 20:41:57 10° W 20:48:16 45° SSW 20:57:34 10° SE visible
24 Apr - 22:46:24 10° WSW 22:52:31 22° SSW 23:00:21 10° S visible
25 Apr - 16:03:33 10° SW 16:07:41 34° SSE 16:12:42 10° E daylight
25 Apr - 18:05:52 10° WSW 18:10:53 60° S 18:18:02 10° E daylight
25 Apr - 20:08:47 10° W 20:14:42 46° SSW 20:23:25 10° SE visible
25 Apr - 22:12:54 10° WSW 22:18:50 23° SSW 22:26:36 10° SSE visible
26 Apr - 15:30:34 10° SW 15:34:27 29° SSE 15:38:55 10° E daylight
26 Apr - 17:32:45 10° WSW 17:37:31 57° S 17:44:02 10° E daylight
26 Apr - 19:35:38 10° W 19:41:11 48° SSW 19:49:18 10° ESE daylight
26 Apr - 21:39:29 10° W 21:45:12 24° SSW 21:52:48 10° SSE visible
27 Apr - 14:57:35 10° SSW 15:01:14 25° SSE 15:05:13 10° E daylight
27 Apr - 16:59:38 10° WSW 17:04:12 54° S 17:10:09 10° E daylight
27 Apr - 19:02:30 10° W 19:07:44 49° SSW 19:15:15 10° ESE daylight
27 Apr - 21:06:07 10° W 21:11:37 26° SSW 21:18:58 10° SSE visible
28 Apr - 14:24:36 10° SSW 14:28:01 21° SSE 14:31:32 10° ESE daylight
28 Apr - 16:26:31 10° WSW 16:30:54 51° S 16:36:21 10° E daylight
28 Apr - 18:29:21 10° W 18:34:19 50° S 18:41:15 10° ESE daylight
28 Apr - 20:32:49 10° W 20:38:03 27° SSW 20:45:07 10° SSE visible
